Time,TemperatureF,DewpointF,PressureIn,WindDirection,WindDirectionDegrees,WindSpeedMPH,WindSpeedGustMPH,Humidity,HourlyPrecipIn,Conditions,Clouds,dailyrainin,SoftwareType,DateUTC
2013-03-13 00:00:00,32.1,28.4,29.96,West,271,1.0,5.0,86,0.00,,---,0.00,VWS V14.01,2013-03-13 05:00:00,
2013-03-13 00:05:00,32.1,28.4,29.95,SW,229,8.0,8.0,86,0.00,,---,0.00,VWS V14.01,2013-03-13 05:05:00,
2013-03-13 00:10:00,32.0,28.3,29.95,WSW,249,1.0,10.0,86,0.00,,---,0.00,VWS V14.01,2013-03-13 05:10:00,
2013-03-13 00:15:00,31.7,28.0,29.95,SW,226,2.0,10.0,86,0.00,,---,0.00,VWS V14.01,2013-03-13 05:15:00,
2013-03-13 00:20:00,31.4,27.7,29.95,West,262,3.0,10.0,86,0.00,,---,0.00,VWS V14.01,2013-03-13 05:20:00,
2013-03-13 00:25:00,31.3,27.9,29.95,SW,226,3.0,10.0,87,0.00,,---,0.00,VWS V14.01,2013-03-13 05:25:00,
2013-03-13 00:30:00,31.2,27.8,29.95,West,276,3.0,4.0,87,0.00,,---,0.00,VWS V14.01,2013-03-13 05:30:00,
2013-03-13 00:35:00,31.0,27.6,29.95,West,266,4.0,7.0,87,0.00,,---,0.00,VWS V14.01,2013-03-13 05:35:00,
2013-03-13 00:40:00,30.8,27.4,29.95,WSW,255,1.0,7.0,87,0.00,,---,0.00,VWS V14.01,2013-03-13 05:40:00,
2013-03-13 00:45:00,30.6,27.5,29.94,SW,229,2.0,7.0,88,0.00,,---,0.00,VWS V14.01,2013-03-13 05:45:00,
2013-03-13 00:50:00,30.5,27.4,29.95,WSW,253,2.0,7.0,88,0.00,,---,0.00,VWS V14.01,2013-03-13 05:50:00,
2013-03-13 00:55:00,30.4,27.3,29.95,West,262,2.0,7.0,88,0.00,,---,0.00,VWS V14.01,2013-03-13 05:55:00,
2013-03-13 01:00:00,30.3,27.2,29.95,SW,235,1.0,2.0,88,0.00,,---,0.00,VWS V14.01,2013-03-13 06:00:00,
2013-03-13 01:05:00,30.3,27.2,29.95,WSW,238,3.0,5.0,88,0.00,,---,0.00,VWS V14.01,2013-03-13 06:05:00,
2013-03-13 01:10:00,30.3,27.2,29.95,WSW,245,0.0,5.0,88,0.00,,---,0.00,VWS V14.01,2013-03-13 06:10:00,
2013-03-13 01:15:00,30.3,27.5,29.95,SSW,212,1.0,5.0,89,0.00,,---,0.00,VWS V14.01,2013-03-13 06:15:00,
2013-03-13 01:20:00,30.3,27.5,29.94,SW,219,3.0,5.0,89,0.00,,---,0.00,VWS V14.01,2013-03-13 06:20:00,
2013-03-13 01:25:00,30.4,27.5,29.95,SW,229,2.0,5.0,89,0.00,,---,0.00,VWS V14.01,2013-03-13 06:25:00,
2013-03-13 01:30:00,30.5,27.4,29.95,WSW,240,4.0,4.0,88,0.00,,---,0.00,VWS V14.01,2013-03-13 06:30:00,
2013-03-13 01:35:00,30.6,27.5,29.94,WSW,248,2.0,4.0,88,0.00,,---,0.00,VWS V14.01,2013-03-13 06:35:00,
2013-03-13 01:40:00,30.8,27.7,29.94,WSW,243,1.0,5.0,88,0.00,,---,0.00,VWS V14.01,2013-03-13 06:40:00,
2013-03-13 01:45:00,30.8,27.7,29.94,SW,222,6.0,6.0,88,0.00,,---,0.00,VWS V14.01,2013-03-13 06:45:00,
2013-03-13 01:50:00,30.9,27.8,29.94,WSW,239,4.0,8.0,88,0.00,,---,0.00,VWS V14.01,2013-03-13 06:50:00,
2013-03-13 01:55:00,31.0,27.9,29.94,West,270,3.0,8.0,88,0.00,,---,0.00,VWS V14.01,2013-03-13 06:55:00,
2013-03-13 02:00:00,31.1,27.7,29.94,WSW,252,2.0,5.0,87,0.00,,---,0.00,VWS V14.01,2013-03-13 07:00:00,
2013-03-13 02:05:00,31.2,27.8,29.94,WSW,252,5.0,7.0,87,0.00,,---,0.00,VWS V14.01,2013-03-13 07:05:00,
2013-03-13 02:10:00,31.2,27.5,29.94,WSW,248,5.0,7.0,86,0.00,,---,0.00,VWS V14.01,2013-03-13 07:10:00,
2013-03-13 02:15:00,31.3,27.6,29.94,SW,220,7.0,8.0,86,0.00,,---,0.00,VWS V14.01,2013-03-13 07:15:00,
2013-03-13 02:20:00,31.3,27.9,29.94,SSW,212,4.0,8.0,87,0.00,,---,0.00,VWS V14.01,2013-03-13 07:20:00,
2013-03-13 02:25:00,31.2,27.5,29.94,WSW,250,8.0,8.0,86,0.00,,---,0.00,VWS V14.01,2013-03-13 07:25:00,
2013-03-13 02:30:00,31.1,26.5,29.94,West,262,7.0,12.0,83,0.00,,---,0.00,VWS V14.01,2013-03-13 07:30:00,
2013-03-13 02:35:00,31.0,26.2,29.94,WSW,246,7.0,12.0,82,0.00,,---,0.00,VWS V14.01,2013-03-13 07:35:00,
2013-03-13 02:40:00,30.8,26.0,29.94,West,262,5.0,12.0,82,0.00,,---,0.00,VWS V14.01,2013-03-13 07:40:00,
2013-03-13 02:45:00,30.7,25.9,29.93,West,273,3.0,13.0,82,0.00,,---,0.00,VWS V14.01,2013-03-13 07:45:00,
2013-03-13 02:50:00,30.6,25.5,29.93,West,269,3.0,13.0,81,0.00,,---,0.00,VWS V14.01,2013-03-13 07:50:00,
2013-03-13 02:55:00,30.5,25.1,29.93,WSW,250,5.0,13.0,80,0.00,,---,0.00,VWS V14.01,2013-03-13 07:55:00,
2013-03-13 03:00:00,30.4,24.7,29.94,West,271,6.0,11.0,79,0.00,,---,0.00,VWS V14.01,2013-03-13 08:00:00,
2013-03-13 03:05:00,30.3,24.6,29.94,West,276,6.0,16.0,79,0.00,,---,0.00,VWS V14.01,2013-03-13 08:05:00,
2013-03-13 03:10:00,30.1,24.4,29.94,West,260,8.0,16.0,79,0.00,,---,0.00,VWS V14.01,2013-03-13 08:10:00,
2013-03-13 03:15:00,29.8,24.1,29.94,SW,231,4.0,16.0,79,0.00,,---,0.00,VWS V14.01,2013-03-13 08:15:00,
2013-03-13 03:20:00,29.6,24.2,29.94,WSW,257,4.0,16.0,80,0.00,,---,0.00,VWS V14.01,2013-03-13 08:20:00,
2013-03-13 03:25:00,29.5,24.4,29.93,SW,231,2.0,16.0,81,0.00,,---,0.00,VWS V14.01,2013-03-13 08:25:00,
2013-03-13 03:30:00,29.4,24.3,29.93,SSE,148,2.0,8.0,81,0.00,,---,0.00,VWS V14.01,2013-03-13 08:30:00,
2013-03-13 03:35:00,29.5,24.4,29.93,WSW,243,4.0,10.0,81,0.00,,---,0.00,VWS V14.01,2013-03-13 08:35:00,
2013-03-13 03:40:00,29.5,24.7,29.93,West,271,3.0,10.0,82,0.00,,---,0.00,VWS V14.01,2013-03-13 08:40:00,
2013-03-13 03:45:00,29.6,24.8,29.93,WSW,238,5.0,10.0,82,0.00,,---,0.00,VWS V14.01,2013-03-13 08:45:00,
2013-03-13 03:50:00,29.6,24.8,29.93,SW,231,3.0,10.0,82,0.00,,---,0.00,VWS V14.01,2013-03-13 08:50:00,
2013-03-13 03:55:00,29.6,25.1,29.94,West,269,7.0,12.0,83,0.00,,---,0.00,VWS V14.01,2013-03-13 08:55:00,
2013-03-13 04:00:00,29.6,24.8,29.94,West,274,3.0,9.0,82,0.00,,---,0.00,VWS V14.01,2013-03-13 09:00:00,
2013-03-13 04:05:00,29.6,24.8,29.94,WNW,297,10.0,14.0,82,0.00,,---,0.00,VWS V14.01,2013-03-13 09:05:00,
2013-03-13 04:10:00,29.5,24.7,29.94,West,281,10.0,16.0,82,0.00,,---,0.00,VWS V14.01,2013-03-13 09:10:00,
2013-03-13 04:15:00,29.4,24.6,29.95,West,269,5.0,16.0,82,0.00,,---,0.00,VWS V14.01,2013-03-13 09:15:00,
2013-03-13 04:20:00,29.3,24.5,29.94,West,263,4.0,16.0,82,0.00,,---,0.00,VWS V14.01,2013-03-13 09:20:00,
2013-03-13 04:25:00,29.2,24.4,29.95,WNW,287,5.0,16.0,82,0.00,,---,0.00,VWS V14.01,2013-03-13 09:25:00,
2013-03-13 04:30:00,29.1,24.3,29.95,West,278,7.0,7.0,82,0.00,,---,0.00,VWS V14.01,2013-03-13 09:30:00,
2013-03-13 04:35:00,29.0,24.2,29.95,West,276,5.0,9.0,82,0.00,,---,0.00,VWS V14.01,2013-03-13 09:35:00,
2013-03-13 04:40:00,29.0,24.2,29.95,West,281,3.0,9.0,82,0.00,,---,0.00,VWS V14.01,2013-03-13 09:40:00,
2013-03-13 04:45:00,28.8,24.3,29.95,WNW,283,2.0,9.0,83,0.00,,---,0.00,VWS V14.01,2013-03-13 09:45:00,
2013-03-13 04:50:00,28.8,24.3,29.95,West,276,3.0,9.0,83,0.00,,---,0.00,VWS V14.01,2013-03-13 09:50:00,
2013-03-13 04:55:00,28.7,24.2,29.96,WNW,302,5.0,9.0,83,0.00,,---,0.00,VWS V14.01,2013-03-13 09:55:00,
2013-03-13 05:00:00,28.6,24.1,29.96,WSW,257,3.0,10.0,83,0.00,,---,0.00,VWS V14.01,2013-03-13 10:00:00,
2013-03-13 05:05:00,28.5,24.0,29.96,West,269,4.0,10.0,83,0.00,,---,0.00,VWS V14.01,2013-03-13 10:05:00,
2013-03-13 05:10:00,28.5,24.0,29.96,WNW,287,2.0,10.0,83,0.00,,---,0.00,VWS V14.01,2013-03-13 10:10:00,
2013-03-13 05:15:00,28.4,23.9,29.96,WNW,283,4.0,10.0,83,0.00,,---,0.00,VWS V14.01,2013-03-13 10:15:00,
2013-03-13 05:20:00,28.3,23.8,29.96,WNW,287,4.0,10.0,83,0.00,,---,0.00,VWS V14.01,2013-03-13 10:20:00,
2013-03-13 05:25:00,28.3,23.8,29.96,West,262,2.0,10.0,83,0.00,,---,0.00,VWS V14.01,2013-03-13 10:25:00,
2013-03-13 05:30:00,28.3,23.8,29.97,West,279,3.0,10.0,83,0.00,,---,0.00,VWS V14.01,2013-03-13 10:30:00,
2013-03-13 05:35:00,28.4,24.2,29.97,West,261,4.0,10.0,84,0.00,,---,0.00,VWS V14.01,2013-03-13 10:35:00,
2013-03-13 05:40:00,28.5,24.0,29.97,West,273,3.0,10.0,83,0.00,,---,0.00,VWS V14.01,2013-03-13 10:40:00,
2013-03-13 05:45:00,28.4,24.2,29.97,West,271,5.0,10.0,84,0.00,,---,0.00,VWS V14.01,2013-03-13 10:45:00,
2013-03-13 05:50:00,28.4,24.2,29.97,WNW,288,5.0,10.0,84,0.00,,---,0.00,VWS V14.01,2013-03-13 10:50:00,
2013-03-13 05:55:00,28.5,24.3,29.97,WSW,246,2.0,10.0,84,0.00,,---,0.00,VWS V14.01,2013-03-13 10:55:00,
2013-03-13 06:00:00,28.6,24.4,29.97,WSW,253,3.0,8.0,84,0.00,,---,0.00,VWS V14.01,2013-03-13 11:00:00,
2013-03-13 06:05:00,28.6,24.1,29.97,West,271,6.0,11.0,83,0.00,,---,0.00,VWS V14.01,2013-03-13 11:05:00,
2013-03-13 06:10:00,28.7,24.2,29.97,WNW,283,2.0,11.0,83,0.00,,---,0.00,VWS V14.01,2013-03-13 11:10:00,
2013-03-13 06:14:00,28.7,24.2,29.97,West,267,6.0,11.0,83,0.00,,---,0.00,VWS V14.01,2013-03-13 11:14:00,
2013-03-13 06:19:00,28.8,24.3,29.98,SW,233,4.0,11.0,83,0.00,,---,0.00,VWS V14.01,2013-03-13 11:19:00,
2013-03-13 06:25:00,28.8,24.6,29.98,SW,218,5.0,11.0,84,0.00,,---,0.00,VWS V14.01,2013-03-13 11:25:00,
2013-03-13 06:29:00,28.8,24.6,29.98,WSW,242,3.0,9.0,84,0.00,,---,0.00,VWS V14.01,2013-03-13 11:29:00,
2013-03-13 06:30:00,28.8,24.6,29.98,WNW,283,6.0,11.0,84,0.00,,---,0.00,VWS V14.01,2013-03-13 11:30:00,
2013-03-13 06:34:00,28.8,24.6,29.98,SW,224,2.0,9.0,84,0.00,,---,0.00,VWS V14.01,2013-03-13 11:34:00,
2013-03-13 06:39:00,28.8,24.9,29.98,West,270,5.0,9.0,85,0.00,,---,0.00,VWS V14.01,2013-03-13 11:39:00,
2013-03-13 06:44:00,28.7,24.8,29.98,SW,231,4.0,9.0,85,0.00,,---,0.00,VWS V14.01,2013-03-13 11:44:00,
2013-03-13 06:49:00,28.6,24.7,29.98,West,259,7.0,9.0,85,0.00,,---,0.00,VWS V14.01,2013-03-13 11:49:00,
2013-03-13 06:54:00,28.6,24.7,29.99,WNW,283,9.0,12.0,85,0.00,,---,0.00,VWS V14.01,2013-03-13 11:54:00,
2013-03-13 06:59:00,28.4,24.5,29.99,West,260,6.0,10.0,85,0.00,,---,0.00,VWS V14.01,2013-03-13 11:59:00,
2013-03-13 07:00:00,28.5,24.6,29.99,West,280,6.0,12.0,85,0.00,,---,0.00,VWS V14.01,2013-03-13 12:00:00,
2013-03-13 07:04:00,28.4,24.5,29.99,WNW,285,4.0,14.0,85,0.00,,---,0.00,VWS V14.01,2013-03-13 12:04:00,
2013-03-13 07:09:00,28.3,24.7,29.99,NW,307,3.0,14.0,86,0.00,,---,0.00,VWS V14.01,2013-03-13 12:09:00,
2013-03-13 07:14:00,28.2,24.8,29.99,SW,229,4.0,14.0,87,0.00,,---,0.00,VWS V14.01,2013-03-13 12:14:00,
2013-03-13 07:19:00,28.0,24.9,29.99,NW,309,11.0,14.0,88,0.00,,---,0.00,VWS V14.01,2013-03-13 12:19:00,
2013-03-13 07:24:00,27.8,25.0,30.00,West,266,4.0,16.0,89,0.00,,---,0.00,VWS V14.01,2013-03-13 12:24:00,
2013-03-13 07:29:00,27.7,25.2,30.00,WNW,302,7.0,12.0,90,0.00,,---,0.00,VWS V14.01,2013-03-13 12:29:00,
2013-03-13 07:30:00,27.8,25.2,30.00,SSW,203,4.0,16.0,90,0.00,,---,0.00,VWS V14.01,2013-03-13 12:30:00,
2013-03-13 07:34:00,27.6,25.1,30.00,West,281,8.0,15.0,90,0.00,,---,0.00,VWS V14.01,2013-03-13 12:34:00,
2013-03-13 07:39:00,27.6,25.3,30.00,West,261,8.0,15.0,91,0.00,,---,0.00,VWS V14.01,2013-03-13 12:39:00,
2013-03-13 07:44:00,27.7,25.4,30.00,WNW,283,6.0,15.0,91,0.00,,---,0.00,VWS V14.01,2013-03-13 12:44:00,
2013-03-13 07:49:00,27.8,25.0,30.01,NW,316,10.0,15.0,89,0.00,,---,0.00,VWS V14.01,2013-03-13 12:49:00,
2013-03-13 07:54:00,27.6,23.4,30.02,West,267,2.0,17.0,84,0.00,,---,0.00,VWS V14.01,2013-03-13 12:54:00,
2013-03-13 07:59:00,27.4,22.4,30.01,NW,309,6.0,11.0,81,0.00,,---,0.00,VWS V14.01,2013-03-13 12:59:00,
2013-03-13 08:00:00,27.5,23.0,30.02,WNW,283,4.0,17.0,83,0.00,,---,0.00,VWS V14.01,2013-03-13 13:00:00,
2013-03-13 08:04:00,27.1,21.5,30.02,WNW,283,7.0,15.0,79,0.00,,---,0.00,VWS V14.01,2013-03-13 13:04:00,
2013-03-13 08:09:00,27.1,20.9,30.02,WNW,288,5.0,15.0,77,0.00,,---,0.00,VWS V14.01,2013-03-13 13:09:00,
2013-03-13 08:14:00,27.1,19.9,30.02,WNW,303,3.0,17.0,74,0.00,,---,0.00,VWS V14.01,2013-03-13 13:14:00,
2013-03-13 08:19:00,27.2,19.4,30.02,NW,305,5.0,17.0,72,0.00,,---,0.00,VWS V14.01,2013-03-13 13:19:00,
2013-03-13 08:24:00,27.3,19.5,30.03,NW,318,10.0,17.0,72,0.00,,---,0.00,VWS V14.01,2013-03-13 13:24:00,
2013-03-13 08:29:00,27.4,19.9,30.03,NNW,330,5.0,10.0,73,0.00,,---,0.00,VWS V14.01,2013-03-13 13:29:00,
2013-03-13 08:30:00,27.3,19.8,30.03,WNW,284,7.0,17.0,73,0.00,,---,0.00,VWS V14.01,2013-03-13 13:30:00,
2013-03-13 08:34:00,27.4,19.6,30.03,WNW,297,8.0,11.0,72,0.00,,---,0.00,VWS V14.01,2013-03-13 13:34:00,
2013-03-13 08:39:00,27.5,19.7,30.04,West,267,11.0,13.0,72,0.00,,---,0.00,VWS V14.01,2013-03-13 13:39:00,
2013-03-13 08:44:00,27.3,18.5,30.04,WNW,293,12.0,17.0,69,0.00,,---,0.00,VWS V14.01,2013-03-13 13:44:00,
2013-03-13 08:49:00,27.3,18.5,30.04,WNW,288,7.0,17.0,69,0.00,,---,0.00,VWS V14.01,2013-03-13 13:49:00,
2013-03-13 08:54:00,27.3,18.1,30.04,NW,315,5.0,17.0,68,0.00,,---,0.00,VWS V14.01,2013-03-13 13:54:00,
2013-03-13 08:59:00,27.5,19.0,30.04,WNW,290,4.0,7.0,70,0.00,,---,0.00,VWS V14.01,2013-03-13 13:59:00,
2013-03-13 09:00:00,27.4,18.6,30.04,WNW,303,6.0,17.0,69,0.00,,---,0.00,VWS V14.01,2013-03-13 14:00:00,
2013-03-13 09:04:00,27.7,19.5,30.05,West,281,4.0,12.0,71,0.00,,---,0.00,VWS V14.01,2013-03-13 14:04:00,
2013-03-13 09:09:00,28.1,19.9,30.05,WNW,293,12.0,12.0,71,0.00,,---,0.00,VWS V14.01,2013-03-13 14:09:00,
2013-03-13 09:14:00,28.0,19.5,30.05,NW,311,4.0,13.0,70,0.00,,---,0.00,VWS V14.01,2013-03-13 14:14:00,
2013-03-13 09:19:00,28.2,19.4,30.05,NW,311,11.0,14.0,69,0.00,,---,0.00,VWS V14.01,2013-03-13 14:19:00,
2013-03-13 09:24:00,28.2,19.4,30.05,West,263,6.0,17.0,69,0.00,,---,0.00,VWS V14.01,2013-03-13 14:24:00,
2013-03-13 09:29:00,28.5,19.0,30.06,West,277,7.0,13.0,67,0.00,,---,0.00,VWS V14.01,2013-03-13 14:29:00,
2013-03-13 09:30:00,28.4,19.2,30.06,WNW,294,4.0,17.0,68,0.00,,---,0.00,VWS V14.01,2013-03-13 14:30:00,
2013-03-13 09:34:00,28.4,18.9,30.06,West,277,9.0,13.0,67,0.00,,---,0.00,VWS V14.01,2013-03-13 14:34:00,
2013-03-13 09:39:00,28.5,18.6,30.06,WNW,283,8.0,16.0,66,0.00,,---,0.00,VWS V14.01,2013-03-13 14:39:00,
2013-03-13 09:44:00,28.4,18.1,30.06,WSW,257,12.0,16.0,65,0.00,,---,0.00,VWS V14.01,2013-03-13 14:44:00,
2013-03-13 09:49:00,28.9,19.0,30.07,West,266,10.0,16.0,66,0.00,,---,0.00,VWS V14.01,2013-03-13 14:49:00,
2013-03-13 09:54:00,29.0,19.1,30.07,WNW,297,5.0,20.0,66,0.00,,---,0.00,VWS V14.01,2013-03-13 14:54:00,
2013-03-13 09:59:00,29.1,19.2,30.07,NW,323,1.0,6.0,66,0.00,,---,0.00,VWS V14.01,2013-03-13 14:59:00,
2013-03-13 10:00:00,29.0,19.1,30.07,WNW,288,3.0,20.0,66,0.00,,---,0.00,VWS V14.01,2013-03-13 15:00:00,
2013-03-13 10:04:00,29.0,19.4,30.07,WNW,294,4.0,10.0,67,0.00,,---,0.00,VWS V14.01,2013-03-13 15:04:00,
2013-03-13 10:09:00,28.6,19.4,30.07,WSW,246,6.0,11.0,68,0.00,,---,0.00,VWS V14.01,2013-03-13 15:09:00,
2013-03-13 10:14:00,28.8,19.2,30.07,West,264,10.0,15.0,67,0.00,,---,0.00,VWS V14.01,2013-03-13 15:14:00,
2013-03-13 10:19:00,28.8,18.9,30.08,WNW,285,7.0,18.0,66,0.00,,---,0.00,VWS V14.01,2013-03-13 15:19:00,
2013-03-13 10:24:00,29.4,19.8,30.08,NNW,344,10.0,18.0,67,0.00,,---,0.00,VWS V14.01,2013-03-13 15:24:00,
2013-03-13 10:29:00,29.4,19.1,30.08,WNW,297,8.0,16.0,65,0.00,,---,0.00,VWS V14.01,2013-03-13 15:29:00,
2013-03-13 10:30:00,29.5,19.2,30.08,NW,326,6.0,18.0,65,0.00,,---,0.00,VWS V14.01,2013-03-13 15:30:00,
2013-03-13 10:34:00,29.6,20.0,30.08,NNW,333,9.0,16.0,67,0.00,,---,0.00,VWS V14.01,2013-03-13 15:34:00,
2013-03-13 10:39:00,29.9,19.6,30.09,West,270,9.0,16.0,65,0.00,,---,0.00,VWS V14.01,2013-03-13 15:39:00,
2013-03-13 10:44:00,29.4,18.4,30.09,West,262,7.0,16.0,63,0.00,,---,0.00,VWS V14.01,2013-03-13 15:44:00,
2013-03-13 10:49:00,29.4,18.4,30.09,WSW,253,12.0,17.0,63,0.00,,---,0.00,VWS V14.01,2013-03-13 15:49:00,
2013-03-13 10:54:00,29.3,19.0,30.09,NW,323,6.0,17.0,65,0.00,,---,0.00,VWS V14.01,2013-03-13 15:54:00,
2013-03-13 10:59:00,29.6,20.0,30.09,WNW,285,5.0,8.0,67,0.00,,---,0.00,VWS V14.01,2013-03-13 15:59:00,
2013-03-13 11:00:00,29.4,19.8,30.09,WNW,283,2.0,17.0,67,0.00,,---,0.00,VWS V14.01,2013-03-13 16:00:00,
2013-03-13 11:04:00,30.1,19.4,30.09,SW,233,8.0,18.0,64,0.00,,---,0.00,VWS V14.01,2013-03-13 16:04:00,
2013-03-13 11:09:00,30.4,19.3,30.09,West,280,10.0,18.0,63,0.00,,---,0.00,VWS V14.01,2013-03-13 16:09:00,
2013-03-13 11:14:00,29.4,19.8,30.10,WNW,297,9.0,18.0,67,0.00,,---,0.00,VWS V14.01,2013-03-13 16:14:00,
2013-03-13 11:19:00,28.8,19.9,30.09,WNW,290,10.0,18.0,69,0.00,,---,0.00,VWS V14.01,2013-03-13 16:19:00,
2013-03-13 11:24:00,29.0,19.8,30.09,West,264,7.0,18.0,68,0.00,,---,0.00,VWS V14.01,2013-03-13 16:24:00,
2013-03-13 11:29:00,29.4,19.5,30.09,WSW,239,5.0,9.0,66,0.00,,---,0.00,VWS V14.01,2013-03-13 16:29:00,
2013-03-13 11:30:00,29.3,19.7,30.09,WSW,249,5.0,18.0,67,0.00,,---,0.00,VWS V14.01,2013-03-13 16:30:00,
2013-03-13 11:34:00,29.5,19.2,30.10,WNW,285,12.0,17.0,65,0.00,,---,0.00,VWS V14.01,2013-03-13 16:34:00,
2013-03-13 11:39:00,28.9,20.4,30.10,WNW,283,9.0,18.0,70,0.00,,---,0.00,VWS V14.01,2013-03-13 16:39:00,
2013-03-13 11:44:00,28.9,19.3,30.10,West,276,9.0,18.0,67,0.00,,---,0.00,VWS V14.01,2013-03-13 16:44:00,
2013-03-13 11:49:00,29.0,19.4,30.10,West,260,8.0,18.0,67,0.00,,---,0.00,VWS V14.01,2013-03-13 16:49:00,
2013-03-13 11:54:00,29.2,19.6,30.10,NW,307,5.0,18.0,67,0.00,,---,0.00,VWS V14.01,2013-03-13 16:54:00,
2013-03-13 11:59:00,29.7,20.1,30.10,WSW,253,11.0,11.0,67,0.00,,---,0.00,VWS V14.01,2013-03-13 16:59:00,
2013-03-13 12:00:00,29.6,20.0,30.10,WNW,283,5.0,18.0,67,0.00,,---,0.00,VWS V14.01,2013-03-13 17:00:00,
2013-03-13 12:04:00,29.4,19.5,30.11,WNW,289,10.0,16.0,66,0.00,,---,0.00,VWS V14.01,2013-03-13 17:04:00,
2013-03-13 12:09:00,29.0,20.5,30.11,WNW,291,9.0,16.0,70,0.00,,---,0.00,VWS V14.01,2013-03-13 17:09:00,
2013-03-13 12:14:00,28.6,20.4,30.11,NW,320,5.0,16.0,71,0.00,,---,0.00,VWS V14.01,2013-03-13 17:14:00,
2013-03-13 12:19:00,28.8,20.6,30.11,NNW,343,4.0,16.0,71,0.00,,---,0.00,VWS V14.01,2013-03-13 17:19:00,
2013-03-13 12:24:00,28.8,20.6,30.11,WNW,293,3.0,16.0,71,0.00,,---,0.00,VWS V14.01,2013-03-13 17:24:00,
2013-03-13 12:29:00,28.6,21.1,30.11,WSW,252,3.0,6.0,73,0.00,,---,0.00,VWS V14.01,2013-03-13 17:29:00,
2013-03-13 12:30:00,28.6,20.7,30.12,NW,317,3.0,16.0,72,0.00,,---,0.00,VWS V14.01,2013-03-13 17:30:00,
2013-03-13 12:34:00,28.7,20.5,30.11,NW,315,4.0,10.0,71,0.00,,---,0.00,VWS V14.01,2013-03-13 17:34:00,
2013-03-13 12:39:00,28.8,20.6,30.12,NW,308,10.0,10.0,71,0.00,,---,0.00,VWS V14.01,2013-03-13 17:39:00,
2013-03-13 12:44:00,28.8,20.6,30.12,West,273,5.0,10.0,71,0.00,,---,0.00,VWS V14.01,2013-03-13 17:44:00,
2013-03-13 12:49:00,29.5,21.6,30.12,WNW,288,8.0,10.0,72,0.00,,---,0.00,VWS V14.01,2013-03-13 17:49:00,
2013-03-13 12:54:00,29.8,21.6,30.12,WNW,283,3.0,13.0,71,0.00,,---,0.00,VWS V14.01,2013-03-13 17:54:00,
2013-03-13 12:59:00,29.9,19.9,30.12,WNW,288,6.0,10.0,66,0.00,,---,0.00,VWS V14.01,2013-03-13 17:59:00,
2013-03-13 13:00:00,29.9,19.9,30.12,SW,226,5.0,13.0,66,0.00,,---,0.00,VWS V14.01,2013-03-13 18:00:00,
2013-03-13 13:04:00,30.0,19.7,30.12,WNW,294,10.0,13.0,65,0.00,,---,0.00,VWS V14.01,2013-03-13 18:04:00,
2013-03-13 13:09:00,30.1,19.4,30.12,West,278,9.0,17.0,64,0.00,,---,0.00,VWS V14.01,2013-03-13 18:09:00,
2013-03-13 13:14:00,30.1,18.7,30.12,WSW,249,8.0,17.0,62,0.00,,---,0.00,VWS V14.01,2013-03-13 18:14:00,
2013-03-13 13:19:00,30.2,18.8,30.12,WNW,288,9.0,17.0,62,0.00,,---,0.00,VWS V14.01,2013-03-13 18:19:00,
2013-03-13 13:24:00,30.1,18.3,30.12,WNW,284,8.0,17.0,61,0.00,,---,0.00,VWS V14.01,2013-03-13 18:24:00,
2013-03-13 13:29:00,30.1,18.3,30.12,West,273,9.0,10.0,61,0.00,,---,0.00,VWS V14.01,2013-03-13 18:29:00,
2013-03-13 13:30:00,30.1,18.3,30.12,WNW,301,10.0,17.0,61,0.00,,---,0.00,VWS V14.01,2013-03-13 18:30:00,
2013-03-13 13:34:00,30.2,18.4,30.12,West,259,5.0,13.0,61,0.00,,---,0.00,VWS V14.01,2013-03-13 18:34:00,
2013-03-13 13:39:00,30.0,18.6,30.12,West,271,11.0,17.0,62,0.00,,---,0.00,VWS V14.01,2013-03-13 18:39:00,
2013-03-13 13:44:00,29.8,17.6,30.12,West,269,6.0,17.0,60,0.00,,---,0.00,VWS V14.01,2013-03-13 18:44:00,
2013-03-13 13:49:00,30.1,18.3,30.13,NW,304,11.0,17.0,61,0.00,,---,0.00,VWS V14.01,2013-03-13 18:49:00,
2013-03-13 13:54:00,30.0,18.2,30.13,WNW,294,7.0,17.0,61,0.00,,---,0.00,VWS V14.01,2013-03-13 18:54:00,
2013-03-13 13:59:00,30.1,18.7,30.13,West,274,8.0,10.0,62,0.00,,---,0.00,VWS V14.01,2013-03-13 18:59:00,
2013-03-13 14:00:00,30.1,18.7,30.13,WNW,284,7.0,17.0,62,0.00,,---,0.00,VWS V14.01,2013-03-13 19:00:00,
2013-03-13 14:04:00,30.2,18.8,30.13,NW,307,6.0,18.0,62,0.00,,---,0.00,VWS V14.01,2013-03-13 19:04:00,
2013-03-13 14:09:00,30.3,18.5,30.13,NNE,20,4.0,18.0,61,0.00,,---,0.00,VWS V14.01,2013-03-13 19:09:00,
2013-03-13 14:14:00,30.5,18.3,30.13,WNW,286,5.0,18.0,60,0.00,,---,0.00,VWS V14.01,2013-03-13 19:14:00,
2013-03-13 14:19:00,30.4,19.3,30.13,WNW,286,10.0,20.0,63,0.00,,---,0.00,VWS V14.01,2013-03-13 19:19:00,
2013-03-13 14:24:00,30.1,19.0,30.14,NW,307,6.0,20.0,63,0.00,,---,0.00,VWS V14.01,2013-03-13 19:24:00,
2013-03-13 14:29:00,30.6,20.2,30.14,WNW,287,6.0,9.0,65,0.00,,---,0.00,VWS V14.01,2013-03-13 19:29:00,
2013-03-13 14:30:00,30.5,20.1,30.14,NW,304,5.0,20.0,65,0.00,,---,0.00,VWS V14.01,2013-03-13 19:30:00,
2013-03-13 14:34:00,30.5,18.7,30.14,West,276,6.0,21.0,61,0.00,,---,0.00,VWS V14.01,2013-03-13 19:34:00,
2013-03-13 14:39:00,31.1,19.2,30.14,WNW,284,7.0,21.0,61,0.00,,---,0.00,VWS V14.01,2013-03-13 19:39:00,
2013-03-13 14:44:00,30.7,19.2,30.14,WNW,297,4.0,21.0,62,0.00,,---,0.00,VWS V14.01,2013-03-13 19:44:00,
2013-03-13 14:49:00,30.3,19.2,30.14,West,273,6.0,21.0,63,0.00,,---,0.00,VWS V14.01,2013-03-13 19:49:00,
2013-03-13 14:54:00,29.8,19.1,30.15,WNW,297,9.0,21.0,64,0.00,,---,0.00,VWS V14.01,2013-03-13 19:54:00,
2013-03-13 14:59:00,29.9,19.6,30.15,WNW,301,7.0,10.0,65,0.00,,---,0.00,VWS V14.01,2013-03-13 19:59:00,
2013-03-13 15:00:00,29.8,19.1,30.14,North,356,5.0,21.0,64,0.00,,---,0.00,VWS V14.01,2013-03-13 20:00:00,
2013-03-13 15:04:00,30.4,19.0,30.15,WNW,290,7.0,14.0,62,0.00,,---,0.00,VWS V14.01,2013-03-13 20:04:00,
2013-03-13 15:09:00,30.6,19.1,30.15,NW,317,4.0,14.0,62,0.00,,---,0.00,VWS V14.01,2013-03-13 20:09:00,
2013-03-13 15:30:00,30.5,20.1,30.14,NW,304,5.0,20.0,65,0.00,,---,0.00,VWS V14.01,2013-03-13 20:30:00,
2013-03-13 15:35:00,30.7,20.7,30.16,West,266,8.0,8.0,66,0.00,,---,0.00,VWS V14.01,2013-03-13 20:35:00,
2013-03-13 15:40:00,30.9,20.2,30.16,WNW,284,13.0,17.0,64,0.00,,---,0.00,VWS V14.01,2013-03-13 20:40:00,
2013-03-13 15:45:00,31.0,20.6,30.16,WNW,291,9.0,17.0,65,0.00,,---,0.00,VWS V14.01,2013-03-13 20:45:00,
2013-03-13 15:50:00,30.9,20.2,30.16,SW,233,8.0,17.0,64,0.00,,---,0.00,VWS V14.01,2013-03-13 20:50:00,
2013-03-13 15:55:00,30.3,22.0,30.16,WNW,294,4.0,17.0,71,0.00,,---,0.00,VWS V14.01,2013-03-13 20:55:00,
2013-03-13 16:00:00,30.0,21.8,30.16,WNW,284,4.0,14.0,71,0.00,,---,0.00,VWS V14.01,2013-03-13 21:00:00,
2013-03-13 16:05:00,30.5,21.6,30.16,West,260,7.0,16.0,69,0.00,,---,0.00,VWS V14.01,2013-03-13 21:05:00,
2013-03-13 16:10:00,30.8,21.5,30.16,West,259,6.0,19.0,68,0.00,,---,0.00,VWS V14.01,2013-03-13 21:10:00,
2013-03-13 16:15:00,30.9,20.9,30.16,WNW,287,11.0,19.0,66,0.00,,---,0.00,VWS V14.01,2013-03-13 21:15:00,
2013-03-13 16:20:00,30.9,20.2,30.16,NW,307,8.0,19.0,64,0.00,,---,0.00,VWS V14.01,2013-03-13 21:20:00,
2013-03-13 16:25:00,30.6,20.6,30.16,North,352,9.0,19.0,66,0.00,,---,0.00,VWS V14.01,2013-03-13 21:25:00,
2013-03-13 16:30:00,30.7,20.7,30.16,WNW,284,6.0,7.0,66,0.00,,---,0.00,VWS V14.01,2013-03-13 21:30:00,
2013-03-13 16:35:00,30.9,21.9,30.16,WNW,298,4.0,13.0,69,0.00,,---,0.00,VWS V14.01,2013-03-13 21:35:00,
2013-03-13 16:40:00,31.3,22.0,30.17,WSW,256,9.0,16.0,68,0.00,,---,0.00,VWS V14.01,2013-03-13 21:40:00,
2013-03-13 16:45:00,31.6,22.3,30.17,West,276,13.0,16.0,68,0.00,,---,0.00,VWS V14.01,2013-03-13 21:45:00,
2013-03-13 16:50:00,31.4,21.4,30.17,West,281,7.0,16.0,66,0.00,,---,0.00,VWS V14.01,2013-03-13 21:50:00,
2013-03-13 16:55:00,31.4,22.1,30.17,WSW,253,7.0,16.0,68,0.00,,---,0.00,VWS V14.01,2013-03-13 21:55:00,
2013-03-13 17:00:00,31.5,20.7,30.17,WNW,300,11.0,13.0,64,0.00,,---,0.00,VWS V14.01,2013-03-13 22:00:00,
2013-03-13 17:05:00,31.1,20.4,30.17,WNW,302,10.0,16.0,64,0.00,,---,0.00,VWS V14.01,2013-03-13 22:05:00,
2013-03-13 17:10:00,31.4,21.0,30.17,WNW,297,5.0,16.0,65,0.00,,---,0.00,VWS V14.01,2013-03-13 22:10:00,
2013-03-13 17:15:00,31.3,20.5,30.17,WNW,300,9.0,16.0,64,0.00,,---,0.00,VWS V14.01,2013-03-13 22:15:00,
2013-03-13 17:20:00,31.2,20.1,30.18,WNW,290,12.0,16.0,63,0.00,,---,0.00,VWS V14.01,2013-03-13 22:20:00,
2013-03-13 17:25:00,31.0,19.9,30.18,West,276,11.0,16.0,63,0.00,,---,0.00,VWS V14.01,2013-03-13 22:25:00,
2013-03-13 17:30:00,30.8,20.1,30.18,NW,314,3.0,8.0,64,0.00,,---,0.00,VWS V14.01,2013-03-13 22:30:00,
2013-03-13 17:35:00,30.7,20.0,30.18,West,277,7.0,14.0,64,0.00,,---,0.00,VWS V14.01,2013-03-13 22:35:00,
2013-03-13 17:40:00,30.6,19.9,30.18,WNW,299,11.0,15.0,64,0.00,,---,0.00,VWS V14.01,2013-03-13 22:40:00,
2013-03-13 17:45:00,30.8,20.1,30.18,WNW,290,7.0,15.0,64,0.00,,---,0.00,VWS V14.01,2013-03-13 22:45:00,
2013-03-13 17:50:00,30.9,20.2,30.18,WSW,257,3.0,15.0,64,0.00,,---,0.00,VWS V14.01,2013-03-13 22:50:00,
2013-03-13 17:55:00,31.2,20.5,30.18,NW,326,9.0,15.0,64,0.00,,---,0.00,VWS V14.01,2013-03-13 22:55:00,
2013-03-13 18:00:00,30.8,19.3,30.19,NW,311,8.0,16.0,62,0.00,,---,0.00,VWS V14.01,2013-03-13 23:00:00,
2013-03-13 18:05:00,30.6,19.1,30.19,West,262,7.0,19.0,62,0.00,,---,0.00,VWS V14.01,2013-03-13 23:05:00,
2013-03-13 18:10:00,30.3,19.2,30.19,WNW,287,6.0,19.0,63,0.00,,---,0.00,VWS V14.01,2013-03-13 23:10:00,
2013-03-13 18:15:00,30.1,19.0,30.19,West,262,5.0,19.0,63,0.00,,---,0.00,VWS V14.01,2013-03-13 23:15:00,
2013-03-13 18:20:00,30.0,19.3,30.19,West,277,7.0,19.0,64,0.00,,---,0.00,VWS V14.01,2013-03-13 23:20:00,
2013-03-13 18:25:00,30.0,19.7,30.20,WSW,248,7.0,19.0,65,0.00,,---,0.00,VWS V14.01,2013-03-13 23:25:00,
2013-03-13 18:30:00,29.9,19.6,30.20,WNW,288,8.0,13.0,65,0.00,,---,0.00,VWS V14.01,2013-03-13 23:30:00,
2013-03-13 18:35:00,29.8,19.8,30.20,West,277,7.0,13.0,66,0.00,,---,0.00,VWS V14.01,2013-03-13 23:35:00,
2013-03-13 18:40:00,29.6,20.0,30.20,West,277,3.0,13.0,67,0.00,,---,0.00,VWS V14.01,2013-03-13 23:40:00,
2013-03-13 18:45:00,29.4,19.8,30.20,West,273,5.0,13.0,67,0.00,,---,0.00,VWS V14.01,2013-03-13 23:45:00,
2013-03-13 18:50:00,29.3,19.7,30.20,WNW,285,6.0,13.0,67,0.00,,---,0.00,VWS V14.01,2013-03-13 23:50:00,
2013-03-13 18:55:00,29.3,19.7,30.20,WNW,290,5.0,13.0,67,0.00,,---,0.00,VWS V14.01,2013-03-13 23:55:00,
2013-03-13 19:00:00,29.2,19.3,30.20,West,275,7.0,10.0,66,0.00,,---,0.00,VWS V14.01,2013-03-14 00:00:00,
2013-03-13 19:05:00,29.1,19.2,30.20,WNW,289,3.0,10.0,66,0.00,,---,0.00,VWS V14.01,2013-03-14 00:05:00,
2013-03-13 19:10:00,29.0,19.4,30.21,WNW,287,5.0,10.0,67,0.00,,---,0.00,VWS V14.01,2013-03-14 00:10:00,
2013-03-13 19:15:00,29.0,19.4,30.21,SW,228,2.0,12.0,67,0.00,,---,0.00,VWS V14.01,2013-03-14 00:15:00,
2013-03-13 19:20:00,28.9,19.3,30.21,WNW,287,8.0,12.0,67,0.00,,---,0.00,VWS V14.01,2013-03-14 00:20:00,
2013-03-13 19:25:00,28.9,19.0,30.21,West,273,6.0,12.0,66,0.00,,---,0.00,VWS V14.01,2013-03-14 00:25:00,
2013-03-13 19:30:00,28.8,18.9,30.22,WSW,253,7.0,7.0,66,0.00,,---,0.00,VWS V14.01,2013-03-14 00:30:00,
2013-03-13 19:35:00,28.7,18.4,30.22,West,271,3.0,14.0,65,0.00,,---,0.00,VWS V14.01,2013-03-14 00:35:00,
2013-03-13 19:40:00,28.6,18.3,30.22,West,269,5.0,14.0,65,0.00,,---,0.00,VWS V14.01,2013-03-14 00:40:00,
2013-03-13 19:45:00,28.5,18.6,30.22,WNW,291,4.0,14.0,66,0.00,,---,0.00,VWS V14.01,2013-03-14 00:45:00,
2013-03-13 19:50:00,28.4,18.1,30.23,WSW,256,5.0,14.0,65,0.00,,---,0.00,VWS V14.01,2013-03-14 00:50:00,
2013-03-13 19:55:00,28.4,18.5,30.23,WNW,294,4.0,14.0,66,0.00,,---,0.00,VWS V14.01,2013-03-14 00:55:00,
2013-03-13 20:00:00,28.4,18.5,30.23,WNW,297,7.0,12.0,66,0.00,,---,0.00,VWS V14.01,2013-03-14 01:00:00,
2013-03-13 20:05:00,28.2,18.3,30.23,WNW,295,5.0,12.0,66,0.00,,---,0.00,VWS V14.01,2013-03-14 01:05:00,
2013-03-13 20:10:00,28.2,18.7,30.23,West,266,4.0,12.0,67,0.00,,---,0.00,VWS V14.01,2013-03-14 01:10:00,
2013-03-13 20:15:00,28.1,18.6,30.23,WNW,297,6.0,13.0,67,0.00,,---,0.00,VWS V14.01,2013-03-14 01:15:00,
2013-03-13 20:20:00,28.0,18.5,30.23,NW,309,12.0,13.0,67,0.00,,---,0.00,VWS V14.01,2013-03-14 01:20:00,
2013-03-13 20:25:00,27.9,18.4,30.23,West,274,3.0,13.0,67,0.00,,---,0.00,VWS V14.01,2013-03-14 01:25:00,
2013-03-13 20:30:00,27.8,18.3,30.24,West,273,7.0,10.0,67,0.00,,---,0.00,VWS V14.01,2013-03-14 01:30:00,
2013-03-13 20:35:00,27.8,18.3,30.24,WNW,285,3.0,10.0,67,0.00,,---,0.00,VWS V14.01,2013-03-14 01:35:00,
2013-03-13 20:40:00,27.8,18.3,30.24,WNW,285,7.0,10.0,67,0.00,,---,0.00,VWS V14.01,2013-03-14 01:40:00,
2013-03-13 20:45:00,27.8,18.6,30.24,West,262,4.0,13.0,68,0.00,,---,0.00,VWS V14.01,2013-03-14 01:45:00,
2013-03-13 20:50:00,27.7,18.2,30.24,NW,307,3.0,13.0,67,0.00,,---,0.00,VWS V14.01,2013-03-14 01:50:00,
2013-03-13 20:55:00,27.5,18.0,30.24,West,271,6.0,13.0,67,0.00,,---,0.00,VWS V14.01,2013-03-14 01:55:00,
2013-03-13 21:00:00,27.4,17.9,30.24,West,277,2.0,8.0,67,0.00,,---,0.00,VWS V14.01,2013-03-14 02:00:00,
2013-03-13 21:05:00,27.4,17.9,30.24,West,281,3.0,9.0,67,0.00,,---,0.00,VWS V14.01,2013-03-14 02:05:00,
2013-03-13 21:10:00,27.3,18.1,30.24,WSW,256,5.0,9.0,68,0.00,,---,0.00,VWS V14.01,2013-03-14 02:10:00,
2013-03-13 21:15:00,27.2,18.4,30.25,WNW,288,4.0,9.0,69,0.00,,---,0.00,VWS V14.01,2013-03-14 02:15:00,
2013-03-13 21:20:00,27.0,18.2,30.25,WNW,294,4.0,9.0,69,0.00,,---,0.00,VWS V14.01,2013-03-14 02:20:00,
2013-03-13 21:25:00,26.9,18.1,30.25,WNW,283,6.0,9.0,69,0.00,,---,0.00,VWS V14.01,2013-03-14 02:25:00,
2013-03-13 21:30:00,26.9,17.8,30.25,West,267,4.0,10.0,68,0.00,,---,0.00,VWS V14.01,2013-03-14 02:30:00,
2013-03-13 21:35:00,26.9,17.8,30.25,West,273,5.0,11.0,68,0.00,,---,0.00,VWS V14.01,2013-03-14 02:35:00,
2013-03-13 21:40:00,26.9,17.8,30.25,West,265,6.0,11.0,68,0.00,,---,0.00,VWS V14.01,2013-03-14 02:40:00,
2013-03-13 21:45:00,26.8,17.7,30.25,WNW,284,4.0,11.0,68,0.00,,---,0.00,VWS V14.01,2013-03-14 02:45:00,
2013-03-13 21:50:00,26.7,17.6,30.25,WNW,302,5.0,11.0,68,0.00,,---,0.00,VWS V14.01,2013-03-14 02:50:00,
2013-03-13 21:55:00,26.7,17.6,30.25,West,281,2.0,11.0,68,0.00,,---,0.00,VWS V14.01,2013-03-14 02:55:00,
2013-03-13 22:00:00,26.7,17.6,30.25,West,276,2.0,8.0,68,0.00,,---,0.00,VWS V14.01,2013-03-14 03:00:00,
2013-03-13 22:05:00,26.6,17.5,30.26,NW,323,5.0,11.0,68,0.00,,---,0.00,VWS V14.01,2013-03-14 03:05:00,
2013-03-13 22:10:00,26.6,17.5,30.26,WNW,297,12.0,12.0,68,0.00,,---,0.00,VWS V14.01,2013-03-14 03:10:00,
2013-03-13 22:15:00,26.6,17.1,30.26,WNW,297,1.0,12.0,67,0.00,,---,0.00,VWS V14.01,2013-03-14 03:15:00,
2013-03-13 22:20:00,26.5,17.0,30.26,WNW,300,6.0,12.0,67,0.00,,---,0.00,VWS V14.01,2013-03-14 03:20:00,
2013-03-13 22:25:00,26.6,17.1,30.26,NNW,328,3.0,12.0,67,0.00,,---,0.00,VWS V14.01,2013-03-14 03:25:00,
2013-03-13 22:30:00,26.5,17.4,30.26,West,275,7.0,9.0,68,0.00,,---,0.00,VWS V14.01,2013-03-14 03:30:00,
2013-03-13 22:35:00,26.4,17.3,30.26,WNW,297,4.0,9.0,68,0.00,,---,0.00,VWS V14.01,2013-03-14 03:35:00,
2013-03-13 22:40:00,26.4,17.3,30.26,West,274,4.0,11.0,68,0.00,,---,0.00,VWS V14.01,2013-03-14 03:40:00,
2013-03-13 22:45:00,26.3,17.2,30.26,WNW,287,7.0,11.0,68,0.00,,---,0.00,VWS V14.01,2013-03-14 03:45:00,
2013-03-13 22:50:00,26.4,17.3,30.27,West,273,3.0,11.0,68,0.00,,---,0.00,VWS V14.01,2013-03-14 03:50:00,
2013-03-13 22:55:00,26.4,17.3,30.27,NW,320,9.0,11.0,68,0.00,,---,0.00,VWS V14.01,2013-03-14 03:55:00,
2013-03-13 23:00:00,26.3,17.2,30.27,WNW,293,3.0,5.0,68,0.00,,---,0.00,VWS V14.01,2013-03-14 04:00:00,
2013-03-13 23:05:00,26.3,17.5,30.27,NW,315,2.0,8.0,69,0.00,,---,0.00,VWS V14.01,2013-03-14 04:05:00,
2013-03-13 23:10:00,26.2,17.4,30.27,West,267,4.0,8.0,69,0.00,,---,0.00,VWS V14.01,2013-03-14 04:10:00,
2013-03-13 23:15:00,26.2,17.4,30.27,WNW,293,5.0,9.0,69,0.00,,---,0.00,VWS V14.01,2013-03-14 04:15:00,
2013-03-13 23:20:00,26.2,17.4,30.27,WNW,297,4.0,9.0,69,0.00,,---,0.00,VWS V14.01,2013-03-14 04:20:00,
2013-03-13 23:25:00,26.1,17.3,30.27,WNW,293,8.0,9.0,69,0.00,,---,0.00,VWS V14.01,2013-03-14 04:25:00,
2013-03-13 23:30:00,26.0,17.6,30.27,West,264,4.0,6.0,70,0.00,,---,0.00,VWS V14.01,2013-03-14 04:30:00,
2013-03-13 23:35:00,25.9,17.5,30.27,WNW,302,5.0,7.0,70,0.00,,---,0.00,VWS V14.01,2013-03-14 04:35:00,
2013-03-13 23:40:00,25.9,17.5,30.27,West,270,2.0,7.0,70,0.00,,---,0.00,VWS V14.01,2013-03-14 04:40:00,
2013-03-13 23:45:00,25.9,17.5,30.27,WSW,257,4.0,7.0,70,0.00,,---,0.00,VWS V14.01,2013-03-14 04:45:00,
2013-03-13 23:50:00,25.9,17.5,30.27,WNW,283,3.0,7.0,70,0.00,,---,0.00,VWS V14.01,2013-03-14 04:50:00,
2013-03-13 23:55:00,25.8,17.4,30.27,West,266,3.0,7.0,70,0.00,,---,0.00,VWS V14.01,2013-03-14 04:55:00,